Weather in Astapovo

Russia / Tula Oblast     53°44′56″N   36°40′46″E
temp.,
°C
wind,
m/s
gust,
m/s
humid.,
%
clouds,
%
prec.,
mm/h
press.,
hPa
HPBL,
m
13 may, thu
thu1300:00+6ese37950 0.0 1018118
03:00+6e5129599 0.0 1018259
06:00+8ese6139570 0.2 1016402
09:00+10ese61193100 1.0 1016668
12:00+10se71191100 5.1 1015871
15:00+14sse787393 5.8 10141240
18:00+14s4875100 0.8 10141059
21:00+10s338896 0.8 101531
14 may, fri
fri1400:00+8sse34910 0.0 101656
03:00+8se349263 0.0 101663
06:00+9se369383 0.0 1016127
09:00+15se4780100 0.0 1015407
12:00+19se6773100 0.1 1014962
15:00+20se71174100 2.1 10121411
18:00+19sse71282100 2.3 1010831
21:00+16sse51489100 2.3 1010399
15 may, sat
sat1500:00+14sse4995100 0.3 1010184
03:00+13se38975 0.3 1010150
06:00+14sse379591 0.0 1009158
09:00+18s4783100 0.0 1009497
12:00+21ssw68685 0.9 10091223
15:00+20ssw811684 1.7 10091460
18:00+17ssw7128022 0.8 10101086
21:00+14ssw613894 0.8 1011505
16 may, sun
sun1600:00+12ssw411951 0.0 1012274
03:00+11ssw499614 0.0 1013178
06:00+11ssw48951 0.0 1014239
09:00+15sw57791 0.0 1014611
12:00+19sw576418 0.0 10141395
15:00+19sw676221 0.7 10141609
18:00+18sw35720 0.0 1014747
21:00+14wsw228645 0.0 101515
17 may, mon
mon1700:00+13ne2286100 0.0 101511
03:00+12ene338954 0.0 101528
06:00+12e378849 0.0 1015128
09:00+19e577336 0.0 1014419
12:00+22e686497 0.0 1013908
15:00+24ese68628 0.0 10121170
18:00+23ese6107259 0.8 1010536
21:00+17ese513855 1.1 1010220